{"data":{"norad_id":62313,"epoch":"2026-09-21T10:35:54.746304Z","epoch_age_seconds":95911,"freshness":"FRESH","line1":"1 62313U 24239N   26264.44160586  .00019894  00000+0  59846-3 0  9994","line2":"2 62313  53.1607 349.1077 0001498 123.5655 236.5491 15.34394430 99575","mean_motion":15.3439443,"eccentricity":0.0001498,"inclination_deg":53.1607,"raan_deg":349.1077,"arg_perigee_deg":123.5655,"mean_anomaly_deg":236.5491,"bstar":0.00059846,"rev_number":9957,"period_min":93.848098757762,"perigee_km":461.69503512305,"apogee_km":463.74455581897,"semimajor_km":6840.856795471,"source":"CELESTRAK","updated_at":"2026-09-22T09:00:49.573264Z"}}